Regional Weather Roundup
Issued by NWS

Home | Current Version | Previous Version | Graphics & Text | Print | Product List | Glossary On
Versions: 1 2 3 4 5 6 7 8 9 10 11 12 13 14 15 16 17 18 19 20 21 22 23 24 25 26 27 28 29 30 31 32 33 34 35 36 37 38 39 40 41 42 43 44 45 46 47 48 49 50
000
ASUS43 KFSD 291702
RWRSD

WEATHER ROUNDUP FOR SOUTH DAKOTA
NATIONAL WEATHER SERVICE SIOUX FALLS SD
1200 PM CDT THU JUN 29 2017

NOTE: "FAIR" INDICATES FEW OR NO CLOUDS BELOW 12,000 FEET WITH NO
SIGNIFICANT WEATHER AND/OR OBSTRUCTIONS TO VISIBILITY.


SDZ001>005-009-010-012>017-291800-
NORTHWEST AND NORTH CENTRAL SOUTH DAKOTA

CITY           SKY/WX    TMP DP  RH WIND       PRES   REMARKS
BUFFALO          N/A     63  55  75 S8        29.88R
FAITH            N/A     58  58 100 N6        29.92R
MOBRIDGE       CLOUDY    69  52  54 NW5       29.85R
$$

SDZ012>016-024>037-041>051-057-063-072>074-291800-
SOUTHWEST AND SOUTH CENTRAL SOUTH DAKOTA

CITY           SKY/WX    TMP DP  RH WIND       PRES   REMARKS
RAPID CTY ARPT LGT RAIN  59  53  80 N8        29.95R
PIERRE         CLOUDY    67  55  65 N15       29.82F
CUSTER         MOSUNNY   61  41  47 N8G18     30.02R
ELLSWORTH AFB  CLOUDY    61  50  67 NW17G26   29.95
PHILIP         CLOUDY    68  56  65 N17       29.87R
PINE RIDGE     MOSUNNY   71  52  50 NW12G18   29.93R
SPEARFISH      FAIR      57  50  77 NW8       30.01R
WINNER         FAIR      81  51  35 VRB7      29.79F
$$

SDZ004>011-016>023-039-040-291800-
NORTHEAST SOUTH DAKOTA

CITY           SKY/WX    TMP DP  RH WIND       PRES   REMARKS
ABERDEEN       CLOUDY    64  58  80 W5        29.84R
WATERTOWN      PTSUNNY   70  60  70 NW3       29.83S
BROOKINGS      CLOUDY    72  57  59 VRB5      29.82F
SISSETON         N/A     69  61  75 VRB5      29.82R
$$

SDZ017-020-022-023-036>040-048>070-291800-
SOUTHEAST SOUTH DAKOTA

CITY           SKY/WX    TMP DP  RH WIND       PRES   REMARKS
SIOUX FALLS    CLOUDY    76  60  57 N10       29.79S
HURON          CLOUDY    70  59  68 N7        29.81R
CHAMBERLAIN    CLOUDY    80  58  46 E7        29.80R
MITCHELL       CLOUDY    78  53  41 E9        29.79R
YANKTON        CLOUDY    76  62  62 NE9       29.78R
$$

ABBREVIATIONS USED IN REMARKS
   TC - TEMPERATURE IN CELSIUS
  WCI - WIND CHILL INDEX
   HX - HEAT INDEX
  VSB - VISIBILITY





USA.gov is the U.S. government's official web portal to all federal, state and local government web resources and services.